Weather History for Denver Centennial, CO

Change the Weather History Date:

Friday, October 4, 2013

  Actual Average Record
Temperature  
Mean Temperature 37 °F -  
Max Temperature 47 °F 67 °F 87 °F (1997)
Min Temperature 26 °F 39 °F 26 °F (2013)
Degree Days  
Heating Degree Days 28    
Month to date heating degree days 54  
Moisture  
Dew Point 32 °F    
Average Humidity 78    
Maximum Humidity 100    
Minimum Humidity 56    
Precipitation  
Precipitation 0.00 in - - ()
Month to date precipitation 0.00  
Year to date precipitation 16.81  
Sea Level Pressure  
Sea Level Pressure 30.03 in    
Wind  
Wind Speed 11 mph (North)    
Max Wind Speed 25 mph    
Max Gust Speed 32 mph    
Visibility 6 miles    
Events Fog , Rain , Snow    
Averages and records for this station are not official NWS values.
T = Trace of Precipitation, MM = Missing Value Source: NWS Daily Summary

Daily Weather History Graph

Daily Weather History Graph

Search for Another Location

Airport:

Trip Planner

Search our weather history database for the weather conditions in past years. The results will help you decide how hot, cold, wet, or windy it might be!

Date:

Astronomy

Oct. 04, 2013 Rise Set
Actual Time 6:58 AM MDT 6:36 PM MDT
Civil Twilight 6:31 AM MDT 7:03 PM MDT
Nautical Twilight 6:00 AM MDT 7:34 PM MDT
Astronomical Twilight 5:29 AM MDT 8:05 PM MDT
Moon 6:36 AM MDT (10/4) 6:20 PM MDT (10/4)
Length of Visible Light 12h 31m
Length of Day
11h 37m
Waning Crescent, 0% of the Moon is Illuminated
Oct 4
Waning Crescent
Oct 4
New
Oct 11
First Quarter
Oct 18
Full
Oct 26
Last Quarter

Hourly Weather History & Observations

Time (MDT) Temp. Windchill Dew Point Humidity Pressure Visibility Wind Dir Wind Speed Gust Speed Precip Events Conditions
12:45 AM 46.4 °F 42.4 °F 46.4 °F 100% 29.79 in 2.5 mi NNE 8.1 mph - N/A   Light Drizzle
12:53 AM 46.9 °F - 46.0 °F 97% 29.69 in 1.8 mi NNE 8.1 mph - N/A   Light Drizzle
1:53 AM 46.9 °F - 46.0 °F 97% 29.69 in 1.8 mi NNE 8.1 mph - N/A Rain Light Rain
2:53 AM 44.1 °F 36.5 °F 43.0 °F 96% 29.69 in 1.8 mi North 17.3 mph 21.9 mph N/A Rain Light Rain
3:02 AM 42.8 °F 34.0 °F 42.8 °F 100% 29.81 in 1.5 mi North 20.7 mph - N/A   Overcast
3:53 AM 39.9 °F 31.8 °F 39.9 °F 100% 29.75 in 1.5 mi NNW 15.0 mph 27.6 mph N/A Rain Light Rain
4:53 AM 37.0 °F 25.9 °F 37.0 °F 100% 29.79 in 1.5 mi NNE 23.0 mph 32.2 mph N/A Rain Light Rain
5:21 AM 35.6 °F 25.2 °F 35.6 °F 100% 29.90 in 1.8 mi North 18.4 mph - N/A Rain , Snow Light Snow
5:53 AM 32.0 °F 21.6 °F 32.0 °F 100% 29.88 in 1.0 mi North 15.0 mph - N/A Snow Light Snow
6:53 AM 30.9 °F 21.2 °F 30.9 °F 100% 29.92 in 1.8 mi NNE 12.7 mph - N/A Snow Light Snow
7:53 AM 32.0 °F 24.2 °F 32.0 °F 100% 29.99 in 0.5 mi North 9.2 mph - N/A Fog , Snow Snow
8:53 AM 30.9 °F 19.8 °F 30.9 °F 100% 30.04 in 0.5 mi North 16.1 mph 21.9 mph N/A Fog , Snow Light Snow
9:18 AM 30.2 °F 20.2 °F 30.2 °F 100% 30.03 in 2.0 mi North 12.7 mph - N/A Snow Light Snow
9:53 AM 32.0 °F 22.5 °F 32.0 °F 100% 30.05 in 8.0 mi North 12.7 mph 19.6 mph N/A   Overcast
10:53 AM 33.1 °F 25.5 °F 33.1 °F 100% 30.06 in 7.0 mi North 9.2 mph - N/A Snow Light Snow
11:53 AM 35.1 °F 31.0 °F 34.0 °F 96% 30.06 in 10.0 mi North 4.6 mph - N/A   Overcast
12:39 PM 35.6 °F 30.7 °F 32.0 °F 87% 30.08 in 10.0 mi NNE 5.8 mph - N/A   Overcast
12:53 PM 36.0 °F 32.1 °F 32.0 °F 86% 30.07 in 10.0 mi NNE 4.6 mph - N/A   Overcast
1:53 PM 37.9 °F 31.5 °F 30.9 °F 76% 30.06 in 10.0 mi NNE 9.2 mph - N/A   Overcast
2:53 PM 37.0 °F 28.9 °F 32.0 °F 82% 30.11 in 9.0 mi North 12.7 mph 20.7 mph N/A   Overcast
3:53 PM 36.0 °F 25.6 °F 30.0 °F 79% 30.16 in 7.0 mi North 18.4 mph 23.0 mph N/A Snow Light Snow
4:53 PM 37.9 °F 29.6 °F 26.1 °F 62% 30.18 in 10.0 mi North 13.8 mph - N/A   Overcast
5:08 PM 37.4 °F 29.3 °F 26.6 °F 65% 30.16 in 10.0 mi NNW 12.7 mph - N/A   Mostly Cloudy
5:53 PM 37.0 °F 30.4 °F 27.0 °F 67% 30.23 in 10.0 mi North 9.2 mph - N/A   Mostly Cloudy
6:53 PM 35.1 °F 25.9 °F 21.9 °F 59% 30.25 in 10.0 mi NNE 13.8 mph 23.0 mph N/A   Scattered Clouds
7:53 PM 34.0 °F 26.6 °F 21.9 °F 61% 30.27 in 10.0 mi NNE 9.2 mph - N/A   Scattered Clouds
8:53 PM 30.0 °F 26.5 °F 23.0 °F 75% 30.30 in 10.0 mi SE 3.5 mph - N/A   Scattered Clouds
9:53 PM 30.9 °F - 21.9 °F 69% 30.28 in 10.0 mi Calm Calm - N/A   Scattered Clouds
10:53 PM 28.0 °F 20.0 °F 23.0 °F 81% 30.27 in 10.0 mi South 8.1 mph - N/A   Clear
11:53 PM 28.0 °F 21.7 °F 23.0 °F 81% 30.25 in 10.0 mi South 5.8 mph - N/A   Clear